NORTHEAST SUFFOLK  -  Air Quality Alert Air Quality Alert        NORTHERN NASSAU  -  Air Quality Alert Air Quality Alert        NORTHERN QUEENS  -  Air Quality Alert Air Quality Alert        NORTHWEST SUFFOLK  -  Air Quality Alert Air Quality Alert        SOUTHEAST SUFFOLK  -  Air Quality Alert Air Quality Alert        SOUTHERN NASSAU  -  Air Quality Alert Air Quality Alert        SOUTHERN QUEENS  -  Air Quality Alert Air Quality Alert        SOUTHWEST SUFFOLK  -  Air Quality Alert Air Quality Alert      

Active alerts

Northern Queens
  Details for Northern Queens Air Quality Alert
Southern Queens
  Details for Southern Queens Air Quality Alert
Northern Nassau
  Details for Northern Nassau Air Quality Alert
Southern Nassau
  Details for Southern Nassau Air Quality Alert
Northwest Suffolk
  Details for Northwest Suffolk Air Quality Alert
Southwest Suffolk
  Details for Southwest Suffolk Air Quality Alert
Northeast Suffolk
  Details for Northeast Suffolk Air Quality Alert
Southeast Suffolk
  Details for Southeast Suffolk Air Quality Alert


WXM80 ListenWXM80 Stop

You find our weather info also at:

UK Metoffice

WeatherCloud

Weather Underground

Northeastern Weather Network

AWEKAS

Citizen Weather Observer Program (CWOP)

HAMweather, WeatherForYou, PWS Weather


Weather Underground History page Text

Daily Summary for May 16, 2017 Units:  English    Metric   Both
« Previous Day
Next Day »
Daily Weekly Monthly Yearly Custom
  High: Low: Average:
Temperature: 79.9 °F 53.3 °F 66.7 °F
Dew Point: 55.7 °F 47.2 °F 51.1 °F
Humidity: 84 % 36 % 59 %
Wind Speed: 10.9 mph 0.0 mph 2.4 mph
Wind Gust: 13.8 mph - -
Wind:- - WSW
Pressure: 29.97 in 29.86 in -
Precipitation: 0.00 in    
Historical Graphs
 
 
Tabular Data for May 16, 2017
Time Temperature Dew Point Pressure Wind Wind Speed Wind Gust Humidity Rainfall Rate (Hourly)
00:00 59.1 °F 47.3 °F 29.86 in West 2.7 mph 3.5 mph 65 % 0.00 in
00:05 59.0 °F 47.2 °F 29.86 in WSW 3.3 mph 5.8 mph 65 % 0.00 in
00:11 59.0 °F 47.2 °F 29.86 in West 3.0 mph 12.0 mph 65 % 0.00 in
00:16 59.0 °F 47.2 °F 29.86 in West 5.0 mph 9.0 mph 65 % 0.00 in
00:21 59.0 °F 47.7 °F 29.87 in WNW 5.6 mph 7.0 mph 66 % 0.00 in
00:26 58.9 °F 47.6 °F 29.87 in West 3.0 mph 10.0 mph 66 % 0.00 in
00:31 58.9 °F 47.6 °F 29.87 in West 3.0 mph 6.0 mph 66 % 0.00 in
00:36 58.9 °F 47.6 °F 29.87 in WNW 3.0 mph 6.0 mph 66 % 0.00 in
00:41 58.9 °F 47.6 °F 29.87 in WNW 5.0 mph 10.0 mph 66 % 0.00 in
00:46 58.8 °F 47.9 °F 29.87 in West 2.0 mph 8.0 mph 67 % 0.00 in
00:51 58.7 °F 47.8 °F 29.87 in West 2.0 mph 6.0 mph 67 % 0.00 in
00:56 58.7 °F 47.8 °F 29.87 in West 1.0 mph 9.0 mph 67 % 0.00 in
01:01 58.6 °F 47.7 °F 29.87 in WSW 4.2 mph 10.4 mph 67 % 0.00 in
01:06 58.6 °F 47.7 °F 29.87 in WSW 5.0 mph 10.0 mph 67 % 0.00 in
01:11 58.6 °F 47.7 °F 29.87 in WSW 5.0 mph 10.0 mph 67 % 0.00 in
01:16 58.6 °F 47.6 °F 29.87 in West 5.0 mph 12.0 mph 67 % 0.00 in
01:21 58.5 °F 47.6 °F 29.87 in WSW 2.0 mph 12.0 mph 67 % 0.00 in
01:26 58.5 °F 47.6 °F 29.87 in WSW 2.0 mph 5.0 mph 67 % 0.00 in
01:31 58.5 °F 47.6 °F 29.87 in WSW 3.0 mph 8.0 mph 67 % 0.00 in
01:36 58.5 °F 48.0 °F 29.88 in WSW 5.0 mph 10.0 mph 68 % 0.00 in
01:41 58.5 °F 48.0 °F 29.88 in SW 2.4 mph 3.5 mph 68 % 0.00 in
01:46 58.4 °F 48.3 °F 29.88 in SW 2.0 mph 5.0 mph 69 % 0.00 in
01:51 58.3 °F 48.2 °F 29.88 in West 1.7 mph 3.5 mph 69 % 0.00 in
01:56 58.2 °F 48.1 °F 29.87 in WSW 3.5 mph 6.0 mph 69 % 0.00 in
02:01 58.1 °F 48.4 °F 29.88 in WSW 2.1 mph 4.0 mph 70 % 0.00 in
02:06 58.0 °F 48.3 °F 29.88 in West 1.1 mph 3.5 mph 70 % 0.00 in
02:11 57.9 °F 48.6 °F 29.88 in West 0.6 mph 2.3 mph 71 % 0.00 in
02:16 57.7 °F 48.4 °F 29.87 in WSW 1.4 mph 3.5 mph 71 % 0.00 in
02:21 57.6 °F 48.6 °F 29.87 in West 1.8 mph 4.0 mph 72 % 0.00 in
02:26 57.4 °F 48.4 °F 29.88 in SW 1.6 mph 3.5 mph 72 % 0.00 in
02:31 57.3 °F 48.3 °F 29.88 in West 0.4 mph 3.5 mph 72 % 0.00 in
02:36 57.2 °F 48.6 °F 29.87 in WSW 0.9 mph 2.0 mph 73 % 0.00 in
02:41 57.0 °F 48.4 °F 29.87 in Calm   2.3 mph 73 % 0.00 in
02:46 56.9 °F 48.3 °F 29.87 in WSW 0.1 mph 5.8 mph 73 % 0.00 in
02:52 56.8 °F 48.2 °F 29.87 in WSW 1.4 mph 2.3 mph 73 % 0.00 in
02:57 56.7 °F 48.1 °F 29.87 in Calm   2.3 mph 73 % 0.00 in
03:02 56.6 °F 48.0 °F 29.87 in Calm   1.2 mph 73 % 0.00 in
03:07 56.5 °F 47.9 °F 29.87 in WSW 0.2 mph 1.2 mph 73 % 0.00 in
03:12 56.4 °F 48.2 °F 29.87 in Calm   1.2 mph 74 % 0.00 in
03:17 56.3 °F 48.1 °F 29.87 in Calm     74 % 0.00 in
03:22 56.1 °F 48.3 °F 29.87 in WSW 0.2 mph 1.2 mph 75 % 0.00 in
03:27 55.9 °F 48.4 °F 29.88 in WSW 1.1 mph 2.3 mph 76 % 0.00 in
03:32 55.6 °F 48.2 °F 29.88 in WSW 1.5 mph 2.3 mph 76 % 0.00 in
03:38 55.3 °F 48.2 °F 29.88 in WSW 0.3 mph 1.2 mph 77 % 0.00 in
03:43 55.1 °F 48.4 °F 29.88 in WSW 1.3 mph 2.3 mph 78 % 0.00 in
03:48 54.9 °F 48.5 °F 29.88 in WSW 1.5 mph 3.5 mph 79 % 0.00 in
03:53 54.6 °F 48.6 °F 29.88 in WSW 1.8 mph 3.5 mph 80 % 0.00 in
03:58 54.4 °F 48.4 °F 29.88 in WSW 0.9 mph 2.3 mph 80 % 0.00 in
04:03 54.2 °F 48.2 °F 29.88 in Calm   1.2 mph 80 % 0.00 in
04:08 54.1 °F 48.4 °F 29.88 in WSW 0.5 mph 2.3 mph 81 % 0.00 in
04:13 53.9 °F 48.2 °F 29.89 in WSW 1.5 mph 2.3 mph 81 % 0.00 in
04:18 53.7 °F 48.3 °F 29.89 in WSW 2.3 mph 4.0 mph 82 % 0.00 in
04:23 53.6 °F 48.6 °F 29.90 in WSW 1.3 mph 3.5 mph 83 % 0.00 in
04:28 53.5 °F 48.5 °F 29.90 in West 2.6 mph 6.0 mph 83 % 0.00 in
04:33 53.3 °F 48.6 °F 29.90 in West 2.3 mph 3.5 mph 84 % 0.00 in
04:38 53.3 °F 48.6 °F 29.90 in WSW 1.1 mph 2.3 mph 84 % 0.00 in
04:43 53.4 °F 48.7 °F 29.90 in West 2.7 mph 3.0 mph 84 % 0.00 in
04:49 53.5 °F 48.8 °F 29.90 in SW 0.3 mph 2.3 mph 84 % 0.00 in
04:54 53.5 °F 48.8 °F 29.90 in WNW 4.4 mph 6.9 mph 84 % 0.00 in
04:59 53.5 °F 48.5 °F 29.90 in WNW 0.7 mph 2.3 mph 83 % 0.00 in
05:04 53.6 °F 48.6 °F 29.90 in WNW 2.0 mph 3.5 mph 83 % 0.00 in
05:09 53.6 °F 48.6 °F 29.90 in West 1.5 mph 3.5 mph 83 % 0.00 in
05:14 53.6 °F 48.6 °F 29.91 in WSW 2.6 mph 3.5 mph 83 % 0.00 in
05:19 53.6 °F 48.6 °F 29.91 in WSW 2.1 mph 5.8 mph 83 % 0.00 in
05:24 53.7 °F 48.3 °F 29.92 in WSW 2.7 mph 4.0 mph 82 % 0.00 in
05:29 53.8 °F 48.4 °F 29.92 in West 2.6 mph 8.1 mph 82 % 0.00 in
05:34 53.9 °F 48.5 °F 29.93 in West 2.4 mph 8.1 mph 82 % 0.00 in
05:39 54.1 °F 48.7 °F 29.93 in WSW 2.7 mph 5.8 mph 82 % 0.00 in
05:44 54.2 °F 48.5 °F 29.93 in WSW 1.9 mph 6.0 mph 81 % 0.00 in
05:49 54.3 °F 48.6 °F 29.92 in WSW 0.9 mph 3.5 mph 81 % 0.00 in
05:54 54.4 °F 48.7 °F 29.93 in WSW 2.8 mph 4.6 mph 81 % 0.00 in
05:59 54.5 °F 49.1 °F 29.93 in SW 3.5 mph 5.8 mph 82 % 0.00 in
06:04 54.6 °F 49.2 °F 29.93 in West 1.9 mph 5.0 mph 82 % 0.00 in
06:09 54.6 °F 49.2 °F 29.93 in South 3.3 mph 4.6 mph 82 % 0.00 in
06:14 54.7 °F 49.0 °F 29.93 in WSW 2.6 mph 5.8 mph 81 % 0.00 in
06:19 54.9 °F 49.2 °F 29.93 in West 5.6 mph 8.1 mph 81 % 0.00 in
06:24 55.1 °F 49.4 °F 29.94 in WSW 1.1 mph 3.5 mph 81 % 0.00 in
06:29 55.3 °F 49.6 °F 29.94 in WNW 3.8 mph 5.8 mph 81 % 0.00 in
06:34 55.6 °F 49.5 °F 29.94 in WSW 2.9 mph 8.1 mph 80 % 0.00 in
06:39 55.9 °F 49.8 °F 29.95 in WSW 4.5 mph 8.1 mph 80 % 0.00 in
06:44 56.3 °F 49.9 °F 29.95 in WSW 3.2 mph 5.8 mph 79 % 0.00 in
06:49 56.7 °F 49.9 °F 29.94 in SSW 1.9 mph 4.6 mph 78 % 0.00 in
06:54 57.2 °F 50.4 °F 29.94 in WSW 4.7 mph 8.1 mph 78 % 0.00 in
06:59 57.6 °F 50.1 °F 29.94 in West 4.5 mph 5.8 mph 76 % 0.00 in
07:04 58.1 °F 50.2 °F 29.94 in SW 6.1 mph 8.0 mph 75 % 0.00 in
07:06 58.1 °F 50.2 °F 29.94 in WSW 6.0 mph 10.0 mph 75 % 0.00 in
07:11 58.6 °F 50.0 °F 29.94 in West 3.9 mph 6.9 mph 73 % 0.00 in
07:21 59.2 °F 50.5 °F 29.94 in WNW 1.0 mph 6.0 mph 73 % 0.00 in
07:26 59.5 °F 50.8 °F 29.94 in WSW 0.9 mph 2.3 mph 73 % 0.00 in
07:31 59.6 °F 50.2 °F 29.95 in West 5.0 mph 7.0 mph 71 % 0.00 in
07:36 59.8 °F 50.4 °F 29.95 in West 2.0 mph 9.0 mph 71 % 0.00 in
07:41 59.8 °F 50.0 °F 29.95 in West 2.0 mph 7.0 mph 70 % 0.00 in
07:46 59.8 °F 50.0 °F 29.96 in West 5.0 mph 10.0 mph 70 % 0.00 in
07:51 59.8 °F 50.4 °F 29.96 in West 1.0 mph 5.0 mph 71 % 0.00 in
07:56 59.9 °F 50.8 °F 29.96 in WSW 3.0 mph 7.0 mph 72 % 0.00 in
08:01 60.1 °F 51.0 °F 29.96 in WNW 0.6 mph 3.5 mph 72 % 0.00 in
08:06 60.4 °F 51.7 °F 29.96 in West 1.5 mph 3.5 mph 73 % 0.00 in
08:11 60.6 °F 51.5 °F 29.95 in SW 2.8 mph 4.6 mph 72 % 0.00 in
08:16 60.9 °F 51.4 °F 29.95 in WSW 3.4 mph 6.9 mph 71 % 0.00 in
08:21 61.3 °F 51.4 °F 29.95 in WSW 1.6 mph 3.5 mph 70 % 0.00 in
08:26 61.6 °F 51.3 °F 29.95 in West 3.1 mph 6.0 mph 69 % 0.00 in
08:31 62.0 °F 51.3 °F 29.96 in SW 1.6 mph 3.5 mph 68 % 0.00 in
08:36 62.2 °F 51.5 °F 29.96 in WSW 4.5 mph 6.0 mph 68 % 0.00 in
08:41 62.5 °F 51.4 °F 29.96 in WSW 2.2 mph 3.5 mph 67 % 0.00 in
08:46 62.7 °F 51.6 °F 29.97 in WNW 1.7 mph 8.1 mph 67 % 0.00 in
08:51 63.0 °F 52.3 °F 29.97 in West 3.8 mph 5.8 mph 68 % 0.00 in
08:56 63.3 °F 51.7 °F 29.97 in WNW 3.3 mph 5.8 mph 66 % 0.00 in
09:01 63.6 °F 52.0 °F 29.97 in WSW 3.3 mph 8.0 mph 66 % 0.00 in
09:06 63.8 °F 52.2 °F 29.97 in SSW 4.6 mph 6.9 mph 66 % 0.00 in
09:11 64.0 °F 52.0 °F 29.97 in WSW 1.8 mph 6.9 mph 65 % 0.00 in
09:16 64.3 °F 52.3 °F 29.97 in West 4.2 mph 5.8 mph 65 % 0.00 in
09:21 64.6 °F 53.0 °F 29.97 in SW 3.5 mph 6.0 mph 66 % 0.00 in
09:26 65.0 °F 52.5 °F 29.97 in WNW 3.1 mph 6.9 mph 64 % 0.00 in
09:31 65.4 °F 52.9 °F 29.97 in WNW 2.6 mph 4.6 mph 64 % 0.00 in
09:36 65.7 °F 51.9 °F 29.97 in West 4.7 mph 9.2 mph 61 % 0.00 in
09:41 66.1 °F 51.8 °F 29.97 in WNW 5.1 mph 9.2 mph 60 % 0.00 in
09:46 66.6 °F 53.6 °F 29.97 in West 2.4 mph 6.9 mph 63 % 0.00 in
09:51 67.2 °F 52.4 °F 29.97 in WNW 4.1 mph 6.0 mph 59 % 0.00 in
09:56 67.8 °F 52.9 °F 29.97 in West 3.6 mph 6.9 mph 59 % 0.00 in
10:01 68.5 °F 53.6 °F 29.97 in WNW 3.0 mph 8.0 mph 59 % 0.00 in
10:06 69.2 °F 53.3 °F 29.97 in WNW 4.5 mph 9.2 mph 57 % 0.00 in
10:11 70.1 °F 54.6 °F 29.97 in NW 0.7 mph 3.5 mph 58 % 0.00 in
10:12 70.2 °F 55.7 °F 29.97 in NW 0.2 mph 2.3 mph 60 % 0.00 in
10:17 70.7 °F 54.7 °F 29.97 in West 0.5 mph 4.0 mph 57 % 0.00 in
10:22 71.1 °F 53.6 °F 29.97 in NW 3.7 mph 5.8 mph 54 % 0.00 in
10:27 71.7 °F 54.7 °F 29.97 in West 4.1 mph 8.0 mph 55 % 0.00 in
10:32 72.1 °F 53.0 °F 29.96 in West 5.3 mph 8.1 mph 51 % 0.00 in
10:37 72.1 °F 53.0 °F 29.97 in WNW 4.0 mph 11.5 mph 51 % 0.00 in
10:42 72.2 °F 52.0 °F 29.97 in WNW 3.5 mph 5.8 mph 49 % 0.00 in
10:47 72.3 °F 52.1 °F 29.97 in WNW 3.5 mph 6.9 mph 49 % 0.00 in
10:52 72.4 °F 53.2 °F 29.97 in WNW 1.5 mph 6.9 mph 51 % 0.00 in
10:57 72.6 °F 51.8 °F 29.97 in West 3.7 mph 5.8 mph 48 % 0.00 in
11:02 72.6 °F 54.0 °F 29.97 in NNW 0.9 mph 11.5 mph 52 % 0.00 in
11:07 73.0 °F 52.7 °F 29.97 in WSW 5.2 mph 9.0 mph 49 % 0.00 in
11:12 73.2 °F 52.9 °F 29.97 in SSW 4.2 mph 9.2 mph 49 % 0.00 in
11:17 73.5 °F 52.6 °F 29.97 in West 6.0 mph 9.2 mph 48 % 0.00 in
11:21 73.7 °F 53.3 °F 29.97 in SSW 2.4 mph 8.1 mph 49 % 0.00 in
11:26 73.6 °F 52.1 °F 29.97 in NW 3.9 mph 10.4 mph 47 % 0.00 in
11:31 73.6 °F 52.7 °F 29.97 in SSW 4.3 mph 9.2 mph 48 % 0.00 in
11:32 73.5 °F 52.6 °F 29.97 in South 4.2 mph 8.0 mph 48 % 0.00 in
11:37 73.3 °F 53.0 °F 29.97 in SW 4.0 mph 8.1 mph 49 % 0.00 in
11:42 73.1 °F 52.2 °F 29.97 in SW 3.6 mph 7.0 mph 48 % 0.00 in
11:47 73.1 °F 52.8 °F 29.97 in WSW 4.7 mph 9.2 mph 49 % 0.00 in
11:52 73.1 °F 52.8 °F 29.97 in WSW 5.0 mph 10.0 mph 49 % 0.00 in
11:57 73.2 °F 52.9 °F 29.97 in SW 5.0 mph 8.0 mph 49 % 0.00 in
12:02 73.2 °F 51.8 °F 29.97 in SW 5.7 mph 10.0 mph 47 % 0.00 in
12:07 73.2 °F 52.9 °F 29.97 in SSW 2.3 mph 9.2 mph 49 % 0.00 in
12:12 73.2 °F 52.3 °F 29.97 in West 6.1 mph 10.4 mph 48 % 0.00 in
12:17 73.2 °F 53.4 °F 29.97 in SSW 2.9 mph 9.2 mph 50 % 0.00 in
12:22 73.2 °F 52.9 °F 29.96 in WSW 5.1 mph 8.0 mph 49 % 0.00 in
12:27 73.0 °F 51.0 °F 29.97 in WSW 5.8 mph 11.5 mph 46 % 0.00 in
12:32 72.9 °F 51.5 °F 29.96 in South 4.9 mph 10.4 mph 47 % 0.00 in
12:37 72.9 °F 52.1 °F 29.96 in West 6.8 mph 11.5 mph 48 % 0.00 in
12:42 73.0 °F 51.6 °F 29.96 in WNW 7.2 mph 8.1 mph 47 % 0.00 in
12:47 73.2 °F 51.8 °F 29.96 in WSW 3.9 mph 11.5 mph 47 % 0.00 in
12:52 73.4 °F 51.9 °F 29.95 in WSW 3.7 mph 9.2 mph 47 % 0.00 in
12:57 73.9 °F 53.0 °F 29.95 in SSW 6.9 mph 10.4 mph 48 % 0.00 in
12:58 73.9 °F 53.0 °F 29.95 in SW 6.5 mph 10.4 mph 48 % 0.00 in
13:03 74.4 °F 52.3 °F 29.95 in SW 6.1 mph 11.5 mph 46 % 0.00 in
13:08 75.0 °F 52.2 °F 29.95 in WSW 8.3 mph 11.5 mph 45 % 0.00 in
13:13 75.5 °F 52.7 °F 29.95 in West 3.9 mph 7.0 mph 45 % 0.00 in
13:18 75.8 °F 52.3 °F 29.95 in West 6.2 mph 9.2 mph 44 % 0.00 in
13:23 76.0 °F 52.5 °F 29.95 in WSW 3.2 mph 8.1 mph 44 % 0.00 in
13:28 76.1 °F 50.7 °F 29.95 in WSW 5.7 mph 10.4 mph 41 % 0.00 in
13:33 76.1 °F 52.0 °F 29.95 in SW 6.5 mph 10.4 mph 43 % 0.00 in
13:38 76.3 °F 54.6 °F 29.94 in WNW 3.6 mph 7.0 mph 47 % 0.00 in
13:43 76.4 °F 51.6 °F 29.95 in WNW 5.1 mph 11.5 mph 42 % 0.00 in
13:48 76.5 °F 51.7 °F 29.95 in WSW 5.6 mph 10.4 mph 42 % 0.00 in
13:53 76.6 °F 51.1 °F 29.95 in West 5.7 mph 9.2 mph 41 % 0.00 in
13:58 76.7 °F 53.1 °F 29.95 in WSW 2.0 mph 6.9 mph 44 % 0.00 in
14:03 76.8 °F 51.3 °F 29.95 in SW 6.3 mph 12.0 mph 41 % 0.00 in
14:08 76.8 °F 50.6 °F 29.95 in SW 10.9 mph 13.8 mph 40 % 0.00 in
14:13 76.8 °F 52.6 °F 29.95 in West 7.7 mph 10.4 mph 43 % 0.00 in
14:18 76.9 °F 52.1 °F 29.95 in SSW 4.9 mph 10.4 mph 42 % 0.00 in
14:23 76.8 °F 52.6 °F 29.95 in SW 3.3 mph 5.8 mph 43 % 0.00 in
14:28 76.7 °F 52.5 °F 29.95 in WNW 1.3 mph 8.1 mph 43 % 0.00 in
14:33 76.7 °F 55.5 °F 29.95 in West 1.8 mph 6.9 mph 48 % 0.00 in
14:38 76.9 °F 52.7 °F 29.95 in WSW 2.0 mph 5.8 mph 43 % 0.00 in
14:43 77.1 °F 52.2 °F 29.95 in WSW 1.5 mph 3.5 mph 42 % 0.00 in
14:48 77.1 °F 52.2 °F 29.95 in SW 4.4 mph 10.4 mph 42 % 0.00 in
14:53 77.1 °F 52.9 °F 29.95 in West 3.5 mph 3.5 mph 43 % 0.00 in
14:58 77.3 °F 53.7 °F 29.95 in West 3.2 mph 4.6 mph 44 % 0.00 in
15:03 77.5 °F 52.6 °F 29.95 in WSW 5.2 mph 7.0 mph 42 % 0.00 in
15:09 77.8 °F 53.5 °F 29.94 in West 3.0 mph 6.0 mph 43 % 0.00 in
15:14 78.0 °F 51.7 °F 29.94 in SW 5.9 mph 8.1 mph 40 % 0.00 in
15:19 78.2 °F 51.9 °F 29.94 in West 4.9 mph 10.4 mph 40 % 0.00 in
15:24 78.4 °F 52.1 °F 29.94 in SW 6.7 mph 11.5 mph 40 % 0.00 in
15:29 78.4 °F 52.1 °F 29.94 in West 3.9 mph 5.8 mph 40 % 0.00 in
15:34 78.5 °F 51.5 °F 29.93 in West 7.9 mph 11.5 mph 39 % 0.00 in
15:39 78.5 °F 52.8 °F 29.93 in WNW 1.6 mph 4.0 mph 41 % 0.00 in
15:44 78.5 °F 52.8 °F 29.93 in West 3.7 mph 7.0 mph 41 % 0.00 in
15:49 78.3 °F 51.3 °F 29.93 in WSW 5.5 mph 10.4 mph 39 % 0.00 in
15:54 78.1 °F 52.5 °F 29.93 in WSW 2.3 mph 6.0 mph 41 % 0.00 in
15:59 78.2 °F 52.6 °F 29.93 in WNW 2.5 mph 3.5 mph 41 % 0.00 in
16:04 78.3 °F 52.0 °F 29.93 in SW 3.8 mph 8.1 mph 40 % 0.00 in
16:09 78.7 °F 53.7 °F 29.92 in WSW 5.8 mph 8.0 mph 42 % 0.00 in
16:14 78.9 °F 51.8 °F 29.92 in SW 2.2 mph 5.8 mph 39 % 0.00 in
16:19 79.1 °F 52.0 °F 29.92 in SW 3.7 mph 5.8 mph 39 % 0.00 in
16:24 79.3 °F 52.2 °F 29.92 in SW 4.0 mph 6.0 mph 39 % 0.00 in
16:29 79.4 °F 52.3 °F 29.92 in WSW 2.2 mph 5.0 mph 39 % 0.00 in
16:34 79.6 °F 51.8 °F 29.91 in WSW 2.7 mph 7.0 mph 38 % 0.00 in
16:39 79.8 °F 52.6 °F 29.91 in West 2.6 mph 5.8 mph 39 % 0.00 in
16:44 79.9 °F 51.3 °F 29.91 in WSW 3.0 mph 6.9 mph 37 % 0.00 in
16:50 79.9 °F 50.6 °F 29.91 in West 5.0 mph 6.9 mph 36 % 0.00 in
16:55 79.9 °F 52.0 °F 29.91 in WSW 1.7 mph 3.5 mph 38 % 0.00 in
17:00 79.8 °F 51.2 °F 29.91 in WSW 1.4 mph 3.5 mph 37 % 0.00 in
17:05 79.6 °F 51.8 °F 29.91 in WSW 0.9 mph 2.3 mph 38 % 0.00 in
17:10 79.4 °F 51.6 °F 29.91 in Calm     38 % 0.00 in
17:15 79.2 °F 50.7 °F 29.91 in WSW 0.6 mph 2.3 mph 37 % 0.00 in
17:20 79.0 °F 51.2 °F 29.91 in WSW 0.1 mph 1.2 mph 38 % 0.00 in
17:25 78.8 °F 51.0 °F 29.91 in Calm   1.2 mph 38 % 0.00 in
17:30 78.5 °F 52.2 °F 29.91 in Calm     40 % 0.00 in
17:35 78.3 °F 51.3 °F 29.90 in WSW 0.3 mph 1.2 mph 39 % 0.00 in
17:40 78.1 °F 52.5 °F 29.90 in WSW 0.1 mph 1.2 mph 41 % 0.00 in
17:45 77.9 °F 50.9 °F 29.90 in WSW 0.1 mph 1.2 mph 39 % 0.00 in
17:50 77.8 °F 50.9 °F 29.90 in Calm   1.2 mph 39 % 0.00 in
17:55 77.7 °F 50.8 °F 29.90 in Calm     39 % 0.00 in
18:00 77.6 °F 52.0 °F 29.90 in Calm     41 % 0.00 in
18:05 77.6 °F 51.4 °F 29.90 in Calm     40 % 0.00 in
18:10 77.5 °F 51.3 °F 29.90 in Calm     40 % 0.00 in
18:15 77.3 °F 51.8 °F 29.90 in Calm     41 % 0.00 in
18:20 77.2 °F 51.7 °F 29.90 in Calm     41 % 0.00 in
18:25 77.1 °F 54.7 °F 29.90 in WSW 0.9 mph 2.3 mph 46 % 0.00 in
18:30 76.9 °F 55.1 °F 29.90 in WSW 1.2 mph 3.5 mph 47 % 0.00 in
18:35 76.5 °F 54.8 °F 29.90 in SW 0.1 mph 2.3 mph 47 % 0.00 in
18:40 76.2 °F 53.9 °F 29.90 in SW 0.7 mph 3.5 mph 46 % 0.00 in
18:45 75.6 °F 53.4 °F 29.90 in SW 0.4 mph 3.5 mph 46 % 0.00 in
18:50 75.2 °F 54.2 °F 29.90 in South 1.0 mph 2.0 mph 48 % 0.00 in
18:55 74.9 °F 53.3 °F 29.90 in SSW 0.3 mph 2.0 mph 47 % 0.00 in
19:00 74.6 °F 53.6 °F 29.90 in South 0.1 mph 1.2 mph 48 % 0.00 in
19:05 74.4 °F 54.0 °F 29.90 in South 0.6 mph 2.3 mph 49 % 0.00 in
19:10 74.2 °F 53.8 °F 29.90 in South 0.1 mph 2.3 mph 49 % 0.00 in
19:15 74.0 °F 53.6 °F 29.91 in SW 0.6 mph 2.3 mph 49 % 0.00 in
19:21 73.8 °F 53.4 °F 29.91 in SW 1.0 mph 3.0 mph 49 % 0.00 in
19:26 73.6 °F 53.8 °F 29.91 in Calm   2.0 mph 50 % 0.00 in
19:30 73.2 °F 53.5 °F 29.91 in Calm   2.0 mph 50 % 0.00 in
19:35 72.8 °F 53.7 °F 29.91 in Calm   2.0 mph 51 % 0.00 in
19:40 72.5 °F 53.4 °F 29.91 in SW 1.0 mph 3.0 mph 51 % 0.00 in
19:45 72.2 °F 53.6 °F 29.91 in WSW 1.0 mph 5.0 mph 52 % 0.00 in
19:51 71.9 °F 53.3 °F 29.91 in WSW 1.0 mph 3.0 mph 52 % 0.00 in
19:55 71.5 °F 53.0 °F 29.91 in WSW 1.0 mph 2.0 mph 52 % 0.00 in
20:01 71.2 °F 52.7 °F 29.92 in WSW 0.5 mph 2.3 mph 52 % 0.00 in
20:06 70.9 °F 52.9 °F 29.92 in WSW 0.9 mph 2.3 mph 53 % 0.00 in
20:11 70.6 °F 53.1 °F 29.92 in Calm   2.3 mph 54 % 0.00 in
20:16 70.3 °F 52.9 °F 29.92 in WSW 0.4 mph 1.2 mph 54 % 0.00 in
20:21 70.0 °F 52.6 °F 29.92 in WSW 0.1 mph 1.2 mph 54 % 0.00 in
20:26 69.8 °F 52.9 °F 29.92 in Calm     55 % 0.00 in
20:31 69.4 °F 52.5 °F 29.92 in Calm   1.2 mph 55 % 0.00 in
20:36 69.1 °F 52.7 °F 29.91 in Calm   1.2 mph 56 % 0.00 in
20:41 68.8 °F 52.5 °F 29.91 in Calm     56 % 0.00 in
20:46 68.5 °F 52.7 °F 29.92 in WSW 0.2 mph 2.3 mph 57 % 0.00 in
20:51 68.1 °F 52.3 °F 29.92 in WSW 0.1 mph 1.2 mph 57 % 0.00 in
20:56 67.8 °F 52.5 °F 29.92 in WSW 0.4 mph 2.3 mph 58 % 0.00 in
21:01 67.5 °F 52.2 °F 29.92 in WSW 0.4 mph 1.2 mph 58 % 0.00 in
21:06 67.2 °F 51.9 °F 29.93 in WSW 1.3 mph 3.5 mph 58 % 0.00 in
21:11 67.0 °F 51.7 °F 29.93 in Calm   1.2 mph 58 % 0.00 in
21:16 66.8 °F 52.0 °F 29.93 in Calm     59 % 0.00 in
21:21 66.6 °F 51.8 °F 29.93 in WSW 1.4 mph 3.5 mph 59 % 0.00 in
21:26 66.4 °F 51.6 °F 29.93 in SW 1.4 mph 2.3 mph 59 % 0.00 in
21:31 66.2 °F 51.9 °F 29.93 in WSW 3.0 mph 4.6 mph 60 % 0.00 in
21:36 66.1 °F 52.3 °F 29.93 in WSW 3.1 mph 4.0 mph 61 % 0.00 in
21:41 65.9 °F 52.1 °F 29.93 in SW 2.8 mph 4.6 mph 61 % 0.00 in
21:46 65.8 °F 52.0 °F 29.93 in SW 2.7 mph 3.5 mph 61 % 0.00 in
21:47 65.8 °F 52.0 °F 29.93 in SW 3.0 mph 3.5 mph 61 % 0.00 in
21:52 65.6 °F 51.8 °F 29.93 in SW 2.0 mph 3.5 mph 61 % 0.00 in
21:57 65.5 °F 52.1 °F 29.93 in SW 2.0 mph 3.5 mph 62 % 0.00 in
22:02 65.4 °F 52.0 °F 29.94 in SW 1.1 mph 2.3 mph 62 % 0.00 in
22:07 65.2 °F 52.3 °F 29.94 in Calm     63 % 0.00 in
22:12 65.1 °F 52.2 °F 29.94 in Calm     63 % 0.00 in
22:17 64.9 °F 52.0 °F 29.94 in SW 0.1 mph   63 % 0.00 in
22:22 64.8 °F 51.9 °F 29.94 in Calm     63 % 0.00 in
22:27 64.6 °F 52.1 °F 29.94 in Calm     64 % 0.00 in
22:32 64.4 °F 52.4 °F 29.94 in Calm   2.3 mph 65 % 0.00 in
22:37 64.2 °F 52.2 °F 29.94 in Calm   1.2 mph 65 % 0.00 in
22:42 64.0 °F 52.0 °F 29.93 in Calm     65 % 0.00 in
22:47 63.8 °F 51.8 °F 29.93 in SW 0.3 mph 1.2 mph 65 % 0.00 in
22:52 63.5 °F 51.9 °F 29.93 in SW 0.1 mph 1.2 mph 66 % 0.00 in
22:53 63.5 °F 51.9 °F 29.93 in SW 0.3 mph 1.2 mph 66 % 0.00 in
22:58 63.3 °F 51.7 °F 29.93 in SW 0.2 mph 1.0 mph 66 % 0.00 in
23:03 63.0 °F 51.9 °F 29.93 in Calm     67 % 0.00 in
23:09 62.8 °F 51.7 °F 29.94 in SW 0.3 mph 2.3 mph 67 % 0.00 in
23:14 62.6 °F 51.5 °F 29.94 in Calm     67 % 0.00 in
23:19 62.5 °F 51.4 °F 29.94 in Calm     67 % 0.00 in
23:24 62.3 °F 51.6 °F 29.94 in SW 0.4 mph 1.2 mph 68 % 0.00 in
23:29 62.1 °F 51.4 °F 29.94 in SW 1.0 mph 2.3 mph 68 % 0.00 in
23:34 61.9 °F 51.2 °F 29.94 in SW 1.0 mph 2.3 mph 68 % 0.00 in
23:39 61.7 °F 51.0 °F 29.94 in SW 0.3 mph 1.2 mph 68 % 0.00 in
23:44 61.6 °F 51.3 °F 29.94 in Calm   1.2 mph 69 % 0.00 in
23:49 61.5 °F 51.2 °F 29.94 in SW 1.4 mph 2.3 mph 69 % 0.00 in
23:54 61.4 °F 51.1 °F 29.94 in SW 0.5 mph 2.3 mph 69 % 0.00 in
23:59 61.4 °F 51.1 °F 29.94 in Calm   1.2 mph 69 % 0.00 in
Crab Meadow Weather
Compliments of Weather Underground - 3 mb

Script developed by  Jim McMurry - jmcmurry@mwt.net Adapted for the template by  Wim van der Kuil - Leuven-Template.eu

Astronomy: One year on Mercury is only 88 days.